Home   Weather   Christchurch   Past weeks

Flag for New Zealand Past Weather in Christchurch, New Zealand — Yesterday and Last 2 Weeks

55 °F

Partly sunny.

Feels Like: 53 °F
Forecast: 51 / 66 °F
Wind: 8 mph from East

Location: Christchurch Airport

Current Time: Oct 24, 2016 at 6:20:07 PM

Latest Report: Oct 24, 2016 at 6:00 PM

Visibility: N/A

Pressure: 29.80 "Hg

Humidity: 82%

Dew Point: 50 °F

Location of ChristchurchLocation

Past Weather in Christchurch — Graph


Christchurch Temperature Yesterday

Maximum temperature yesterday: 57 °F (at 2:30 PM)
Minimum temperature yesterday: 46 °F (at 2:00 AM)
Average temperature yesterday: 52 °F

High & Low Weather Summary for the Past Weeks

High75 °F (Oct 18, 1:30 PM)100% (Oct 9, 10:30 PM)30.27 "Hg (Oct 9, 10:30 PM)
Low32 °F (Oct 22, 6:30 AM)27% (Oct 11, 3:00 AM)29.36 "Hg (Oct 12, 3:30 AM)
Average54 °F71%29.80 "Hg
* Reported Oct 9 5:00 PM — Oct 24 5:00 PM, Christchurch, Weather by CustomWeather, © 2016

Note: Actual official high and low records may vary slightly from our data, if they occured in-between our weather recording intervals... More about our weather records


Christchurch Weather History for the Previous 24 Hours

Scroll right to see more
Time TempWeatherWind HumidityBarometerVisibility
5:00 PM
Mon, Oct 24
57 °FPartly sunny.3 mph82%29.83 "HgN/A
4:30 PM55 °FPartly sunny.5 mph88%29.83 "HgN/A
4:00 PM55 °FPassing clouds.5 mph88%29.83 "HgN/A
3:30 PM55 °FPartly sunny.9 mph88%29.83 "HgN/A
3:00 PM57 °FPartly sunny.10 mph82%29.83 "HgN/A
2:30 PM57 °FCool.10 mph82%29.86 "HgN/A
2:00 PM59 °FCool.8 mph77%29.86 "HgN/A
1:30 PM59 °FScattered clouds.8 mph82%29.89 "HgN/A
1:00 PM59 °FScattered clouds.6 mph82%29.89 "HgN/A
12:30 PM59 °FPartly sunny.5 mph82%29.89 "HgN/A
12:00 PM57 °FScattered clouds.6 mph82%29.89 "HgN/A
11:30 AM57 °FPartly sunny.6 mph82%29.92 "HgN/A
11:00 AM55 °FOvercast.5 mph88%29.92 "HgN/A
10:30 AM55 °FOvercast.3 mph88%29.89 "HgN/A
10:00 AM55 °FOvercast.5 mph88%29.92 "HgN/A
9:30 AM55 °FPartly sunny.7 mph88%29.92 "HgN/A
9:00 AM54 °FPartly sunny.7 mph94%29.92 "HgN/A
8:30 AM54 °FPartly sunny.7 mph94%29.92 "HgN/A
8:00 AM54 °FMostly cloudy.2 mph94%29.92 "HgN/A
7:30 AM54 °FMore clouds than sun.3 mph94%29.92 "HgN/A
7:00 AM54 °FPartly sunny.2 mph94%29.92 "HgN/A
6:30 AM54 °FBroken clouds.5 mph94%29.92 "HgN/A
6:00 AM54 °FPassing clouds.7 mph94%29.92 "HgN/A
5:30 AM54 °FMostly cloudy.7 mph100%29.92 "HgN/A
5:00 AM54 °FPassing clouds.7 mph100%29.95 "HgN/A
4:30 AM54 °FLow clouds.7 mph94%29.95 "HgN/A
4:00 AM54 °FMostly cloudy.8 mph100%29.95 "HgN/A
3:30 AM54 °FMostly cloudy.7 mph94%29.95 "HgN/A
3:00 AM54 °FLight rain. Mostly cloudy.9 mph94%29.95 "HgN/A
2:30 AM54 °FPassing clouds.8 mph94%29.98 "HgN/A
2:00 AM54 °FLight rain. Mostly cloudy.12 mph94%29.98 "Hg4 mi
1:30 AM54 °FDrizzle. Mostly cloudy.10 mph94%30.01 "Hg3 mi
1:00 AM54 °FDrizzle. Mostly cloudy.13 mph94%30.01 "HgN/A
12:30 AM54 °FDrizzle. Mostly cloudy.9 mph94%30.01 "Hg5 mi
12:00 AM54 °FOvercast.14 mph94%30.01 "HgN/A
11:30 PM
Sun, Oct 23
54 °FMostly cloudy.16 mph94%30.01 "HgN/A
11:00 PM54 °FPassing clouds.14 mph88%30.01 "HgN/A
10:30 PM54 °FPassing clouds.15 mph88%30.04 "HgN/A
10:00 PM54 °FPassing clouds.17 mph88%30.01 "HgN/A
9:30 PM54 °FPassing clouds.17 mph88%30.01 "HgN/A
9:00 PM54 °FOvercast.17 mph88%30.01 "HgN/A
8:30 PM54 °FPartly cloudy.20 mph88%30.01 "HgN/A
8:00 PM54 °FPartly sunny.17 mph88%30.01 "HgN/A
7:30 PM54 °FPartly sunny.16 mph88%30.01 "HgN/A
7:00 PM54 °FPartly sunny.20 mph88%30.01 "HgN/A
6:30 PM54 °FPartly sunny.20 mph82%30.01 "HgN/A
6:00 PM54 °FScattered clouds.21 mph82%29.98 "HgN/A
Weather by CustomWeather, © 2016

See weather overviewHow to use our weather pages